Regional Weather Roundup
Issued by NWS

Home | Current Version | Previous Version | Text Only | Print | Product List | Glossary Off
Versions: 1 2 3 4 5 6 7 8 9 10 11 12 13 14 15 16 17 18 19 20 21 22 23 24 25 26 27 28 29 30 31 32 33 34 35 36 37 38 39 40 41 42 43 44 45 46 47 48 49 50

000
ASUS43 KLSX 011507
RWRMO

WEATHER SUMMARY FOR MISSOURI
NATIONAL WEATHER SERVICE SPRINGFIELD MO
900 AM CST SUN FEB 01 2015

NOTE: "FAIR" INDICATES FEW OR NO CLOUDS BELOW 12,000 FEET WITH NO
       SIGNIFICANT WEATHER AND/OR OBSTRUCTIONS TO VISIBILITY.
       CURRENT SKY AND/OR WEATHER CONDITIONS ARE NOT AVAILABLE FOR
       CHILLICOTHE AND FARMINGTON.

MOZ001>031-035>038-043-044-053-054-011600-
...NORTHERN AND WESTERN MISSOURI...

CITY           SKY/WX    TMP DP  RH WIND       PRES   REMARKS
KANSAS CTY INT LGT SNOW  32  32 100 NW12      29.74R FOG     WCI  23
KANSAS C DTWN  CLOUDY    34  32  92 NW8       29.74R WCI  27
LEE`S SUMMIT   CLOUDY    33  32  96 NW8       29.73R FOG     WCI  26
ST JOSEPH      LGT SNOW  33  31  92 N10       29.77S FOG     WCI  25
CHILLICOTHE      N/A     34  32  92 CALM      29.74S
KIRKSVILLE     LGT SNOW  33  33 100 NE5       29.72S VSB 1   WCI  29

$$
MOZ066>068-077>081-088>096-101>105-011600-
...SOUTHWEST MISSOURI...

CITY           SKY/WX    TMP DP  RH WIND       PRES   REMARKS
SPRINGFIELD    LGT RAIN  42  40  92 W10       29.71S FOG
JOPLIN         LGT RAIN  43  42  97 SW13G21   29.75R FOG

$$
MOZ032>034-039>042-045>050-055>058-069>072-011600-
...CENTRAL MISSOURI...

CITY           SKY/WX    TMP DP  RH WIND       PRES   REMARKS
COLUMBIA       LGT RAIN  34  33  96 S8        29.71S VSB 1/2 WCI  27
JEFFERSON CITY LGT RAIN  36  35  96 E3        29.73S FOG
ROLLA          CLOUDY    37  36  96 S7        29.69F FOG
SEDALIA        CLOUDY    36  34  92 S6        29.71S FOG
WHITEMAN AFB   LGT RAIN  35  35  98 S5        29.70S FOG
WARRENSBURG    RAIN      34  32  93 CALM      29.71R VSB 1/4
OSAGE BEACH    CLOUDY    37  36  93 S3        29.71F

$$
MOZ051-052-059>065-011600-
...EAST CENTRAL MISSOURI...

CITY           SKY/WX    TMP DP  RH WIND       PRES   REMARKS
ST LOUIS INTL  LGT RAIN  37  34  89 SE10      29.74F FOG     WCI  30
SPIRIT OF STL  CLOUDY    36  34  92 SE3       29.74F FOG
ST CHARLES     CLOUDY    36  34  92 SE8       29.74F FOG     WCI  30

$$
MOZ072>076-082>087-097>100-106>115-011600-
...SOUTH CENTRAL AND SOUTHEAST MISSOURI...

CITY           SKY/WX    TMP DP  RH WIND       PRES   REMARKS
CAPE GIRARDEAU LGT RAIN  42  41  96 S5        29.80F FOG
FARMINGTON     CLOUDY    37  37 100 S8        29.76F
POPLAR BLUFF   LGT RAIN  43  40  89 S3        29.77F FOG
WEST PLAINS    CLOUDY    43  41  93 SW9       29.73F FOG

$$



USA.gov is the U.S. government's official web portal to all federal, state and local government web resources and services.